Location: Bacharowice
(49.9333°N, 19.5833°E)
Time: 01:33:44
(UTC+00:00)

Cosmos 1378 - Pass Details

Date: 11 May 2021
Orbit: 490 x 499 km, 82.5° (Epoch: 22 June)

Event Time Altitude Azimuth Distance (km) Brightness Sun altitude
Exits shadow 23:34:59 28° 277° (W) 969 4.5 -20.8°
Maximum altitude 23:35:22 28° 288° (WNW) 955 4.5 -20.8°
Drops below altitude 10° 23:38:38 10° 350° (N) 1,706 6.7 -20.6°
Sets 23:40:59 0° 2° (N) 2,596 8.2 -20.5°
